312P/NEAT (2001)

Japanese version
Home page
Updated on September 14, 2014

---------------------------------------------------------------------

* Profile

Designation 312P/2001 Q11
Discovery Date August 18, 2001
Magnitude 18.9 mag
Discoverer Maik Meyer (NEAT)

* Orbital Elements

Epoch 2001 June 20.0 TT = JDT 2452080.5
T 2001 June 22.35309 TT                                 MPC
q   1.8516587            (2000.0)            P               Q
n   0.15946158     Peri.  202.27569     +0.96905392     +0.15288044
a   3.3679477      Node   147.01179     -0.13597703     +0.98587431
e   0.4502116      Incl.   20.85242     -0.20602122     +0.06840622
P   6.18
From 29 observations 2001 Aug. 18-2014 Sept. 7, mean residual 0".5.

* Magnitudes Graph

        m1 = 14.5 + 5 log d + 10.0 log r

---------------------------------------------------------------------

The orbital elements are published on M.P.E.C. 2014-R91.
The magnitudes graphs are made with Comet for Windows.

---------------------------------------------------------------------

Copyright(C) Seiichi Yoshida (comet@aerith.net). All rights reserved.